This is the latest recevied weather packets stored in our database for station/object KC1TLF-15. If no packets are shown the sender has not sent any weather packets the latest 10 day(s).
| Time | Temp. | Humidity | Pressure | Rain* | Wind** | Luminosity | Snow |
|---|---|---|---|---|---|---|---|
| 1778022669 | 22.78° C | 48% | 1014.9 hPa | 0 mm | 0.45 m/s, 323° | - | - |
| 1778022070 | 23.89° C | 47% | 1014.8 hPa | 0 mm | 0.89 m/s, 342° | - | - |
| 1778021470 | 23.89° C | 46% | 1014.7 hPa | 0 mm | 0.45 m/s, 166° | - | - |
| 1778020871 | 24.44° C | 45% | 1014.1 hPa | 0 mm | 1.79 m/s, 172° | - | - |
| 1778020270 | 25° C | 44% | 1014.3 hPa | 0 mm | 0.45 m/s, 324° | - | - |
| 1778019671 | 25.56° C | 44% | 1014.1 hPa | 0 mm | 0.45 m/s, 1° | - | - |
| 1778019071 | 26.11° C | 42% | 1014 hPa | 0 mm | 0.89 m/s, 318° | - | - |
| 1778018470 | 26.11° C | 41% | 1013.6 hPa | 0 mm | 1.79 m/s, 1° | - | - |
| 1778017870 | 26.67° C | 40% | 1013.8 hPa | 0 mm | 1.34 m/s, 175° | - | - |
| 1778017269 | 26.67° C | 40% | 1013.7 hPa | 0 mm | 0 m/s | - | - |
| 1778016671 | 27.22° C | 39% | 1013.5 hPa | 0 mm | 0.89 m/s, 250° | - | - |
| 1778016070 | 27.22° C | 37% | 1013.5 hPa | 0 mm | 0.45 m/s, 302° | - | - |
| 1778015470 | 28.33° C | 35% | 1013.1 hPa | 0 mm | 0.45 m/s, 324° | - | - |
| 1778014869 | 28.33° C | 33% | 1013.3 hPa | 0 mm | 0.89 m/s, 333° | - | - |
| 1778014270 | 27.78° C | 34% | 1012.9 hPa | 0 mm | 1.79 m/s, 108° | 138 W/m² | - |
| 1778013671 | 27.78° C | 33% | 1013.2 hPa | 0 mm | 0.45 m/s, 272° | 121 W/m² | - |
| 1778013070 | 27.78° C | 34% | 1013.1 hPa | 0 mm | 1.79 m/s, 260° | 133 W/m² | - |
| 1778012470 | 28.33° C | 36% | 1013.2 hPa | 0 mm | 0.89 m/s, 325° | - | - |
| 1778011871 | 27.78° C | 36% | 1013.2 hPa | 0 mm | 0.89 m/s, 168° | 121 W/m² | - |
| 1778011270 | 27.78° C | 37% | 1013.4 hPa | 0 mm | 0.89 m/s, 184° | - | - |
| 1778010670 | 28.33° C | 36% | 1013.2 hPa | 0 mm | 0.45 m/s, 302° | 170 W/m² | - |
| 1778010070 | 28.33° C | 37% | 1013.4 hPa | 0 mm | 0 m/s | - | - |
| 1778009471 | 28.33° C | 35% | 1013.3 hPa | 0 mm | 0 m/s | 107 W/m² | - |
| 1778008870 | 28.89° C | 36% | 1013.5 hPa | 0 mm | 0.89 m/s, 329° | 108 W/m² | - |
| 1778008270 | 28.89° C | 36% | 1013.7 hPa | 0 mm | 0.89 m/s, 280° | - | - |
* Rain latest hour (hover to see other rain measurements)
** Current wind speed in m/s (hover to see current wind gust speed)